Погода в Сан-Хосе

Испания     38°55′18″N   1°17′37″E
темп.,
°C
ветер,
м/с
пор.,
м/с
влажн.,
%
обл.,
%
осадки,
мм/ч
давл.,
гПа
погр.,
м
11 апреля, вс
вс1123:00+13ююз12861 0.0 1014110
02:00+13ю23861 0.0 1014151
05:00+13ю33882 0.0 1013157
08:00+14ююз3589100 0.0 1014230
11:00+16юз578314 0.0 1014426
14:00+16юз56810 0.0 1014458
17:00+17ююз67792 0.0 1013387
20:00+16ююз56884 0.0 1014223
12 апреля, пн
пн1223:00+15сз33925 0.0 101748
02:00+14ссв8117588 0.1 1019653
05:00+14ссв9116792 0.0 1020705
08:00+12ссв1315627 0.0 1022825
11:00+12ссв11116343 0.0 1024787
14:00+13ссв876824 0.0 1025863
17:00+14в446120 0.0 1024848
20:00+13вюв55755 0.0 1024397
13 апреля, вт
вт1323:00+12юв56741 0.0 1026309
02:00+12юв457442 0.0 1026344
05:00+12юв347466 0.0 1026310
08:00+12юв337238 0.0 1026309
11:00+14юв225747 0.0 1027917
14:00+15ююз125667 0.0 1026955
17:00+15юв1256100 0.0 1024981
20:00+14юв345881 0.0 1024531
14 апреля, ср
ср1423:00+13вюв3562100 0.0 1025242
02:00+12вюв346499 0.0 1024210
05:00+12в34695 0.0 1023211
08:00+12в35725 0.0 1023229
11:00+15в455920 0.0 1023931
14:00+16вюв4456100 0.0 1022801
17:00+16вюв555398 0.0 1020707
20:00+14в6764100 0.0 1020680
15 апреля, чт
чт1523:00+13в5871100 0.0 1021621
02:00+13в5772100 0.0 1020602
05:00+12всв6869100 0.0 1019583
08:00+13всв5770100 0.0 1019620
11:00+14всв6757100 0.0 1019987
14:00+15всв81052100 0.0 10181397
17:00+14св81158100 0.2 10161451
20:00+12всв71061100 0.8 10161075